Starlink 32552

operational
NORAD ID: 62174 Int'l Des: 2024-225 Owner: SPXS Country: US Constellation: starlink
LEOCIRCULAR

About Starlink 32552

Description loading...

Live Position

Loading 3D Globe...

Upcoming Passes

Altitude History

Altitude vs Time

uPlot chart will show altitude changes over time

Two-Line Element Set

1 62174U 24225M 25257.41413535 .00004152 00000-0 35534-3 0 9997
2 62174 70.0000 248.7890 0002821 267.7911 92.2925 14.98350470 43471
Epoch: Sep 14, 2025 • Age: 24 hours

Current Status

Altitude 590.5 km
Velocity 7.56 km/s
Sub-Earth Point -53.39°S, 76.84°E
Launch Date Nov 30, 2024
Age 0.7 years
Type internet

Technical Details

Classification Payload
Mass 730.00 kg
Dry Mass 700.00 kg
Total Mass 730.00 kg
Length 0.30 m
Diameter 4.10 m
Span 29.00 m
Shape Box + pan
Manufacturer SPXS
Bus Type Starlink V2M
Phase Status In Orbit
Owner/State SPXS/US

Large Constellations

Loading constellations...